Simultaneous Nadir Overpasses (SNOs) Predictions

Prediction of SNOs between NOAA-20 and NOAA-19 Satellite Orbit:

Table of predicted SNOs for the next 14.0 days since TLE Epoch: 12/15/2017
Index Date (NOAA-20) Time (NOAA-20) Lat,Lon (NOAA-20) SZA (NOAA-20 ) Date (NOAA-19) Time (NOAA-19) Lat,Lon (NOAA-19) SZA (NOAA-19 ) Distance(km) Time Diff (sec)
1 12/21/2017 14:45:57 80.71, -88.86 106.90 12/21/2017 14:44:55 80.71, -88.91 106.94 0.91 62
2 12/21/2017 15:36:40 -80.71, 78.42 73.10 12/21/2017 15:35:54 -80.72, 78.58 73.09 3.03 46
3 12/21/2017 16:27:20 80.71,-114.20 106.90 12/21/2017 16:26:56 80.71,-114.29 106.93 1.84 24
4 12/21/2017 17:18:03 -80.71, 53.09 73.10 12/21/2017 17:17:55 -80.72, 53.21 73.10 2.57 8
5 12/21/2017 18:08:43 80.71,-139.53 106.90 12/21/2017 18:08:57 80.72,-139.67 106.92 2.82 14
6 12/21/2017 18:59:27 -80.73, 27.41 73.05 12/21/2017 18:59:57 -80.71, 27.48 73.08 2.18 30
7 12/21/2017 19:50:07 80.73,-165.20 106.95 12/21/2017 19:50:58 80.72,-165.05 106.91 2.87 51




NCC Satellite Simultaneous Nadir Overpasses (SNOs) Prediction Service
